• En Estados Unidos
  • Lista de países
  • Para 7 días
  • Temperatura del agua
  • Mapa Satelital
  • El tiempo en el mapa
  • Informadores
  • user-avatar
    Iniciar sesión

    Tiempo cada hora Benguela

    Hoy, 17 Enero, Miércoles

    Tiempo Temperatura Precipitaciones Viento Presión Humedad
    00:00 +27°C° 0 mm 2 mps 758 mmHg 86%
    01:00 +27°C° 0 mm 1 mps 758 mmHg 87%
    02:00 +27°C° 0 mm 1 mps 758 mmHg 88%
    03:00 +27°C° 0 mm 1 mps 758 mmHg 88%
    04:00 +27°C° 0 mm 1 mps 758 mmHg 89%
    05:00 +27°C° 0 mm 1 mps 758 mmHg 88%
    06:00 +27°C° 0 mm 1 mps 758 mmHg 87%
    07:00 +28°C° 0 mm 1 mps 758 mmHg 84%
    08:00 +30°C° 0 mm 2 mps 758 mmHg 76%
    09:00 +31°C° 0 mm 2 mps 758 mmHg 69%
    10:00 +34°C° 0 mm 2 mps 758 mmHg 61%
    11:00 +35°C° 0 mm 3 mps 758 mmHg 58%
    12:00 +35°C° 0 mm 3 mps 757 mmHg 54%
    13:00 +36°C° 0 mm 4 mps 757 mmHg 51%
    14:00 +36°C° 0 mm 4 mps 756 mmHg 53%
    15:00 +35°C° 0 mm 4 mps 756 mmHg 55%
    16:00 +34°C° 0 mm 4 mps 756 mmHg 57%
    17:00 +33°C° 0 mm 3 mps 756 mmHg 63%
    18:00 +31°C° 0 mm 3 mps 756 mmHg 69%
    19:00 +29°C° 0 mm 3 mps 757 mmHg 75%
    20:00 +29°C° 0 mm 3 mps 757 mmHg 76%
    21:00 +29°C° 0 mm 3 mps 758 mmHg 77%
    22:00 +29°C° 0 mm 3 mps 758 mmHg 79%
    23:00 +28°C° 0,1 mm 3 mps 758 mmHg 79%

    Mañana, 18 Enero, Jueves

    Tiempo Temperatura Precipitaciones Viento Presión Humedad
    00:00 +28°C° 0,1 mm 2 mps 758 mmHg 79%
    01:00 +28°C° 0,1 mm 2 mps 758 mmHg 80%
    02:00 +28°C° 0,2 mm 2 mps 758 mmHg 81%
    03:00 +28°C° 0,2 mm 2 mps 758 mmHg 82%
    04:00 +28°C° 0,2 mm 2 mps 757 mmHg 84%
    05:00 +27°C° 0,1 mm 1 mps 758 mmHg 85%
    06:00 +27°C° 0,1 mm 1 mps 758 mmHg 86%
    07:00 +27°C° 0,1 mm 1 mps 758 mmHg 87%
    08:00 +28°C° 0 mm 1 mps 758 mmHg 83%
    09:00 +29°C° 0 mm 1 mps 759 mmHg 79%
    10:00 +29°C° 0 mm 2 mps 759 mmHg 75%
    11:00 +30°C° 0 mm 2 mps 758 mmHg 70%
    12:00 +33°C° 0 mm 3 mps 758 mmHg 66%
    13:00 +34°C° 0 mm 4 mps 757 mmHg 61%
    14:00 +33°C° 0 mm 4 mps 757 mmHg 63%
    15:00 +31°C° 0 mm 3 mps 757 mmHg 66%
    16:00 +30°C° 0 mm 3 mps 756 mmHg 68%
    17:00 +30°C° 0 mm 3 mps 757 mmHg 72%
    18:00 +29°C° 0 mm 2 mps 757 mmHg 76%
    19:00 +28°C° 0 mm 2 mps 757 mmHg 80%
    20:00 +28°C° 0,1 mm 1 mps 758 mmHg 82%
    21:00 +27°C° 0,1 mm 1 mps 758 mmHg 84%
    22:00 +27°C° 0,1 mm 1 mps 759 mmHg 86%
    23:00 +27°C° 0,8 mm 1 mps 759 mmHg 88%

    Pasado mañana, 19 Enero, Viernes

    Tiempo Temperatura Precipitaciones Viento Presión Humedad
    00:00 +27°C° 0,8 mm 1 mps 759 mmHg 89%
    01:00 +27°C° 0,8 mm 1 mps 758 mmHg 91%
    02:00 +26°C° 1,6 mm 1 mps 758 mmHg 91%
    03:00 +26°C° 1,6 mm 1 mps 758 mmHg 92%
    04:00 +26°C° 1,6 mm 1 mps 757 mmHg 93%
    05:00 +26°C° 0,7 mm 1 mps 758 mmHg 92%
    06:00 +26°C° 0,7 mm 1 mps 758 mmHg 92%
    07:00 +26°C° 0,7 mm 1 mps 758 mmHg 92%
    08:00 +26°C° 0,8 mm 1 mps 758 mmHg 91%
    09:00 +26°C° 0,8 mm 1 mps 758 mmHg 90%
    10:00 +26°C° 0,8 mm 1 mps 759 mmHg 89%
    11:00 +27°C° 1 mm 1 mps 758 mmHg 88%
    12:00 +27°C° 1 mm 1 mps 758 mmHg 87%
    13:00 +28°C° 1 mm 1 mps 757 mmHg 85%
    14:00 +27°C° 0,5 mm 1 mps 757 mmHg 87%
    15:00 +27°C° 0,5 mm 1 mps 756 mmHg 88%
    16:00 +27°C° 0,5 mm 1 mps 756 mmHg 89%
    17:00 +27°C° 0,6 mm 1 mps 756 mmHg 91%
    18:00 +27°C° 0,6 mm 1 mps 757 mmHg 92%
    19:00 +26°C° 0,6 mm 1 mps 757 mmHg 94%
    20:00 +26°C° 1,3 mm 1 mps 758 mmHg 93%
    21:00 +26°C° 1,3 mm 1 mps 758 mmHg 93%
    22:00 +26°C° 1,3 mm 1 mps 759 mmHg 93%
    23:00 +26°C° 0,9 mm 1 mps 758 mmHg 94%

    20 Enero, Sábado

    Tiempo Temperatura Precipitaciones Viento Presión Humedad
    00:00 +26°C° 0,9 mm 1 mps 758 mmHg 94%
    01:00 +26°C° 0,9 mm 1 mps 757 mmHg 95%
    02:00 +26°C° 0,3 mm 1 mps 757 mmHg 95%
    03:00 +26°C° 0,3 mm 1 mps 757 mmHg 94%
    04:00 +26°C° 0,3 mm 1 mps 757 mmHg 94%
    05:00 +26°C° 0 mm 1 mps 757 mmHg 94%
    06:00 +26°C° 0 mm 1 mps 758 mmHg 93%
    07:00 +26°C° 0 mm 1 mps 758 mmHg 92%
    08:00 +28°C° 0 mm 1 mps 758 mmHg 86%
    09:00 +29°C° 0 mm 2 mps 758 mmHg 80%
    10:00 +30°C° 0 mm 2 mps 758 mmHg 73%
    11:00 +30°C° 0,1 mm 3 mps 758 mmHg 73%
    12:00 +31°C° 0,1 mm 3 mps 757 mmHg 72%
    13:00 +32°C° 0,1 mm 4 mps 757 mmHg 71%
    14:00 +32°C° 0,1 mm 4 mps 756 mmHg 73%
    15:00 +30°C° 0,1 mm 3 mps 756 mmHg 75%
    16:00 +30°C° 0,1 mm 3 mps 756 mmHg 76%
    17:00 +29°C° 0,1 mm 3 mps 756 mmHg 80%
    18:00 +28°C° 0,1 mm 2 mps 757 mmHg 83%
    19:00 +28°C° 0,1 mm 1 mps 758 mmHg 86%
    20:00 +28°C° 0 mm 1 mps 758 mmHg 87%
    21:00 +27°C° 0 mm 1 mps 758 mmHg 88%
    22:00 +27°C° 0 mm 1 mps 759 mmHg 88%
    23:00 +27°C° 0 mm 1 mps 758 mmHg 89%

    21 Enero, Domingo

    Tiempo Temperatura Precipitaciones Viento Presión Humedad
    00:00 +27°C° 0 mm 1 mps 758 mmHg 90%
    01:00 +25°C° 0 mm 0 mps 757 mmHg 90%
    02:00 +24°C° 0 mm 0 mps 757 mmHg 91%
    03:00 +24°C° 0 mm 0 mps 757 mmHg 91%
    04:00 +24°C° 0 mm 0 mps 757 mmHg 92%
    05:00 +24°C° 0 mm 0 mps 757 mmHg 91%
    06:00 +24°C° 0 mm 0 mps 758 mmHg 89%
    07:00 +25°C° 0 mm 0 mps 759 mmHg 88%
    08:00 +27°C° 0,1 mm 1 mps 759 mmHg 84%
    09:00 +28°C° 0,1 mm 1 mps 759 mmHg 81%
    10:00 +28°C° 0,1 mm 1 mps 759 mmHg 77%
    11:00 +29°C° 0,1 mm 1 mps 759 mmHg 75%
    12:00 +29°C° 0,1 mm 1 mps 758 mmHg 72%
    13:00 +29°C° 0,1 mm 2 mps 757 mmHg 69%
    14:00 +30°C° 0 mm 2 mps 757 mmHg 67%
    15:00 +30°C° 0 mm 2 mps 756 mmHg 65%
    16:00 +31°C° 0 mm 2 mps 756 mmHg 63%
    17:00 +30°C° 0 mm 2 mps 756 mmHg 68%
    18:00 +29°C° 0 mm 2 mps 757 mmHg 73%
    19:00 +28°C° 0 mm 1 mps 757 mmHg 78%
    20:00 +27°C° 0 mm 2 mps 758 mmHg 80%
    21:00 +27°C° 0 mm 2 mps 758 mmHg 82%
    22:00 +27°C° 0 mm 2 mps 759 mmHg 84%
    23:00 +27°C° 0 mm 1 mps 758 mmHg 85%

    22 Enero, Lunes

    Tiempo Temperatura Precipitaciones Viento Presión Humedad
    00:00 +26°C° 0 mm 1 mps 758 mmHg 86%
    01:00 +26°C° 0 mm 1 mps 758 mmHg 87%
    02:00 +26°C° 0 mm 1 mps 758 mmHg 87%
    03:00 +26°C° 0 mm 1 mps 758 mmHg 88%
    04:00 +26°C° 0 mm 1 mps 758 mmHg 88%
    05:00 +26°C° 0 mm 1 mps 758 mmHg 87%
    06:00 +26°C° 0 mm 1 mps 759 mmHg 86%
    07:00 +26°C° 0 mm 1 mps 759 mmHg 84%
    08:00 +28°C° 0 mm 1 mps 759 mmHg 75%
    09:00 +30°C° 0 mm 1 mps 759 mmHg 67%
    10:00 +32°C° 0 mm 1 mps 759 mmHg 58%
    11:00 +34°C° 0 mm 2 mps 758 mmHg 55%
    12:00 +34°C° 0 mm 3 mps 758 mmHg 53%
    13:00 +35°C° 0 mm 4 mps 757 mmHg 50%
    14:00 +35°C° 0 mm 4 mps 757 mmHg 54%
    15:00 +34°C° 0 mm 4 mps 756 mmHg 57%
    16:00 +33°C° 0 mm 4 mps 756 mmHg 60%
    17:00 +32°C° 0 mm 4 mps 756 mmHg 66%
    18:00 +30°C° 0 mm 4 mps 757 mmHg 72%
    19:00 +28°C° 0 mm 4 mps 757 mmHg 78%
    20:00 +28°C° 0 mm 3 mps 758 mmHg 80%
    21:00 +27°C° 0 mm 3 mps 758 mmHg 82%
    22:00 +27°C° 0 mm 3 mps 758 mmHg 84%
    23:00 +27°C° 0 mm 3 mps 758 mmHg 85%
    Mostrar más